TOM289 GMAD-EGCC

Flight info

Callsign TOM289
Flight time 3h 23m
Altitude 36000
Route MOGBA3D MOGBA UH300 ESS DCT TAKAV DCT BEVOP DCT INLIB DCT COCUN DCT LERLI DCT PRT DCT PINEK DCT KORUL DCT EBOMO DCT RUSIB DCT NOZHU DCT SHIRI DCT TOJAQ DCT EPACE DCT ACCOP DCT MOCQO P16 AXCIS AXCIS1M
Aircraft B738/M-SDE2E3FGHIRWXY/LB1

Departure

Time 2026-04-20 20:58
Airport Al Massira Airport (GMAD)

Arrival

Time 2026-04-21 00:21
Airport Manchester Airport (EGCC)
Time Latitude Longitude Altitude Speed Heading
2026-04-20 20:05 30.32881 -9.40997 230 ft 0 kts
2026-04-20 20:47 30.32869 -9.40998 230 ft 4 kts
2026-04-20 20:48 30.32843 -9.41003 230 ft 4 kts 19°
2026-04-20 20:48 30.32819 -9.41016 233 ft 4 kts 45°
2026-04-20 20:48 30.32809 -9.41037 234 ft 1 kts 91°
2026-04-20 20:48 30.32809 -9.41043 234 ft 0 kts 91°
2026-04-20 20:52 30.32808 -9.41033 234 ft 3 kts 91°
2026-04-20 20:52 30.32808 -9.40997 230 ft 6 kts 91°
2026-04-20 20:53 30.32806 -9.40931 230 ft 10 kts 92°
2026-04-20 20:53 30.32804 -9.40866 230 ft 8 kts 92°
2026-04-20 20:53 30.32802 -9.40786 230 ft 11 kts 90°
2026-04-20 20:53 30.32788 -9.40687 232 ft 14 kts 121°
2026-04-20 20:54 30.32694 -9.40665 230 ft 15 kts 181°
2026-04-20 20:54 30.32588 -9.40668 230 ft 14 kts 181°
2026-04-20 20:54 30.32493 -9.40671 230 ft 12 kts 181°
2026-04-20 20:54 30.32437 -9.40610 230 ft 13 kts 98°
2026-04-20 20:55 30.32434 -9.40495 230 ft 16 kts 91°
2026-04-20 20:55 30.32431 -9.40361 230 ft 18 kts 92°
2026-04-20 20:55 30.32427 -9.40208 230 ft 20 kts 91°
2026-04-20 20:55 30.32423 -9.40039 230 ft 22 kts 92°
2026-04-20 20:56 30.32418 -9.39855 230 ft 24 kts 91°
2026-04-20 20:56 30.32414 -9.39657 230 ft 25 kts 91°
2026-04-20 20:56 30.32403 -9.39520 231 ft 15 kts 118°
2026-04-20 20:56 30.32309 -9.39493 230 ft 15 kts 184°
2026-04-20 20:57 30.32225 -9.39521 230 ft 8 kts 258°
2026-04-20 20:57 30.32226 -9.39589 230 ft 10 kts 271°
2026-04-20 20:57 30.32232 -9.39911 230 ft 75 kts 270°
2026-04-20 20:57 30.32253 -9.40780 230 ft 139 kts 271°
2026-04-20 20:58 30.32262 -9.41615 236 ft 174 kts 271°
2026-04-20 20:58 30.32341 -9.43467 1100 ft 174 kts 272°
2026-04-20 20:58 30.32378 -9.44427 1504 ft 179 kts 271°
2026-04-20 20:58 30.32439 -9.45962 1846 ft 205 kts 272°
2026-04-20 20:59 30.32522 -9.47701 2106 ft 224 kts 271°
2026-04-20 20:59 30.32398 -9.49480 2539 ft 229 kts 245°
2026-04-20 20:59 30.31540 -9.51017 3202 ft 227 kts 227°
2026-04-20 20:59 30.30473 -9.52362 3941 ft 227 kts 223°
2026-04-20 21:00 30.29366 -9.53688 4552 ft 236 kts 222°
2026-04-20 21:00 30.28154 -9.55119 4826 ft 259 kts 223°
2026-04-20 21:00 30.27149 -9.56891 5460 ft 271 kts 246°
2026-04-20 21:00 30.26646 -9.59013 6253 ft 275 kts 251°
2026-04-20 21:01 30.26188 -9.61167 6985 ft 276 kts 251°
2026-04-20 21:01 30.25723 -9.63328 7732 ft 278 kts 251°
2026-04-20 21:01 30.25249 -9.65504 8453 ft 280 kts 251°
2026-04-20 21:01 30.24768 -9.67692 9228 ft 282 kts 252°
2026-04-20 21:02 30.24606 -9.69968 9921 ft 293 kts 278°
2026-04-20 21:02 30.25489 -9.72172 10244 ft 321 kts 307°
2026-04-20 21:02 30.27350 -9.73768 10421 ft 349 kts 334°
2026-04-20 21:02 30.29651 -9.74862 10701 ft 365 kts 334°
2026-04-20 21:03 30.31980 -9.76108 11258 ft 371 kts 333°
2026-04-20 21:03 30.34341 -9.77320 11948 ft 374 kts 340°
2026-04-20 21:03 30.36924 -9.77680 12609 ft 379 kts
2026-04-20 21:03 30.39554 -9.77434 13345 ft 380 kts
2026-04-20 21:04 30.42203 -9.77164 13949 ft 384 kts
2026-04-20 21:04 30.44878 -9.76901 14516 ft 388 kts
2026-04-20 21:04 30.47577 -9.76651 15116 ft 390 kts
2026-04-20 21:04 30.50295 -9.76412 15715 ft 393 kts
2026-04-20 21:05 30.53034 -9.76178 16298 ft 396 kts
2026-04-20 21:05 30.55801 -9.75943 16871 ft 400 kts
2026-04-20 21:05 30.58586 -9.75723 17440 ft 403 kts
2026-04-20 21:05 30.61399 -9.75528 17976 ft 408 kts
2026-04-20 21:06 30.64247 -9.75343 18447 ft 412 kts
2026-04-20 21:06 30.67119 -9.75157 18968 ft 414 kts
2026-04-20 21:06 30.70004 -9.74968 19478 ft 416 kts
2026-04-20 21:06 30.72908 -9.74776 19959 ft 419 kts
2026-04-20 21:07 30.75830 -9.74582 20446 ft 422 kts
2026-04-20 21:07 30.78772 -9.74384 20922 ft 425 kts
2026-04-20 21:07 30.81738 -9.74185 21339 ft 429 kts
2026-04-20 21:07 30.84730 -9.73983 21808 ft 432 kts
2026-04-20 21:08 30.87733 -9.73779 22298 ft 434 kts
2026-04-20 21:08 30.90762 -9.73573 22654 ft 439 kts
2026-04-20 21:08 30.93829 -9.73365 23053 ft 443 kts
2026-04-20 21:08 30.96911 -9.73156 23491 ft 445 kts
2026-04-20 21:09 31.00008 -9.72945 23862 ft 447 kts
2026-04-20 21:09 31.03120 -9.72733 24234 ft 449 kts
2026-04-20 21:09 31.06246 -9.72520 24599 ft 451 kts
2026-04-20 21:09 31.09389 -9.72305 24949 ft 453 kts 360°
2026-04-20 21:10 31.12545 -9.72090 25300 ft 455 kts 360°
2026-04-20 21:10 31.15715 -9.71874 25647 ft 458 kts 359°
2026-04-20 21:10 31.18907 -9.71656 25909 ft 462 kts 360°
2026-04-20 21:10 31.22122 -9.71437 26217 ft 464 kts 360°
2026-04-20 21:11 31.25349 -9.71217 26557 ft 465 kts 359°
2026-04-20 21:11 31.28587 -9.70995 26896 ft 467 kts 359°
2026-04-20 21:11 31.31841 -9.70772 27222 ft 469 kts 359°
2026-04-20 21:11 31.35107 -9.70548 27517 ft 471 kts 359°
2026-04-20 21:12 31.38346 -9.70326 27804 ft 473 kts 359°
2026-04-20 21:12 31.41640 -9.70100 28094 ft 475 kts 359°
2026-04-20 21:12 31.44948 -9.69873 28398 ft 477 kts 359°
2026-04-20 21:12 31.48275 -9.69644 28661 ft 480 kts 359°
2026-04-20 21:13 31.51613 -9.69415 28931 ft 482 kts 359°
2026-04-20 21:13 31.54967 -9.69184 29209 ft 484 kts 359°
2026-04-20 21:13 31.58333 -9.68953 29483 ft 486 kts 359°
2026-04-20 21:13 31.61711 -9.68720 29751 ft 487 kts 359°
2026-04-20 21:14 31.65099 -9.68486 30053 ft 487 kts 359°
2026-04-20 21:14 31.68475 -9.68251 30397 ft 485 kts 359°
2026-04-20 21:14 31.71841 -9.68017 30757 ft 484 kts 359°
2026-04-20 21:14 31.75208 -9.67785 30957 ft 486 kts 359°
2026-04-20 21:15 31.78587 -9.67552 31191 ft 486 kts 358°
2026-04-20 21:15 31.81956 -9.67319 31501 ft 485 kts 358°
2026-04-20 21:15 31.85320 -9.67085 31844 ft 483 kts 358°
2026-04-20 21:15 31.88666 -9.66852 32145 ft 482 kts 358°
2026-04-20 21:16 31.92013 -9.66620 32394 ft 482 kts 358°
2026-04-20 21:16 31.95359 -9.66388 32658 ft 481 kts 358°
2026-04-20 21:16 31.98700 -9.66156 32965 ft 480 kts 358°
2026-04-20 21:16 32.02036 -9.65925 33196 ft 481 kts 358°
2026-04-20 21:17 32.05380 -9.65693 33423 ft 481 kts 358°
2026-04-20 21:17 32.08715 -9.65461 33696 ft 480 kts 357°
2026-04-20 21:17 32.12044 -9.65228 33957 ft 479 kts 357°
2026-04-20 21:17 32.15369 -9.64996 34163 ft 478 kts 357°
2026-04-20 21:18 32.18690 -9.64764 34361 ft 478 kts 357°
2026-04-20 21:18 32.22016 -9.64532 34555 ft 478 kts 357°
2026-04-20 21:18 32.25331 -9.64301 34789 ft 477 kts 358°
2026-04-20 21:18 32.28650 -9.64069 34949 ft 478 kts 357°
2026-04-20 21:19 32.31925 -9.63840 35140 ft 477 kts 357°
2026-04-20 21:19 32.35280 -9.63605 35363 ft 476 kts 357°
2026-04-20 21:19 32.38583 -9.63373 35557 ft 476 kts 357°
2026-04-20 21:20 32.45198 -9.62910 35828 ft 477 kts 357°
2026-04-20 21:20 32.51800 -9.62448 35816 ft 478 kts 357°
2026-04-20 21:21 32.58423 -9.61980 35819 ft 475 kts 358°
2026-04-20 21:21 32.65005 -9.61514 35817 ft 472 kts 357°
2026-04-20 21:22 32.71556 -9.61052 35818 ft 470 kts 357°
2026-04-20 21:22 32.78082 -9.60592 35821 ft 470 kts 357°
2026-04-20 21:23 32.84609 -9.60131 35828 ft 470 kts 358°
2026-04-20 21:23 32.91149 -9.59669 35822 ft 472 kts 358°
2026-04-20 21:24 32.97713 -9.59204 35820 ft 473 kts 358°
2026-04-20 21:24 33.04298 -9.58736 35817 ft 475 kts 358°
2026-04-20 21:25 33.10911 -9.58265 35819 ft 477 kts 358°
2026-04-20 21:25 33.17544 -9.57793 35815 ft 478 kts 358°
2026-04-20 21:26 33.24198 -9.57317 35810 ft 479 kts 358°
2026-04-20 21:26 33.30864 -9.56840 35814 ft 480 kts 358°
2026-04-20 21:27 33.37531 -9.56362 35825 ft 480 kts 358°
2026-04-20 21:27 33.44195 -9.55883 35809 ft 479 kts 358°
2026-04-20 21:28 33.50804 -9.55408 35805 ft 478 kts 358°
2026-04-20 21:28 33.57428 -9.54931 35806 ft 476 kts 358°
2026-04-20 21:29 33.64074 -9.54452 35810 ft 475 kts 358°
2026-04-20 21:29 33.70617 -9.53980 35809 ft 473 kts 358°
2026-04-20 21:30 33.77185 -9.53505 35814 ft 472 kts 358°
2026-04-20 21:30 33.83742 -9.53031 35817 ft 472 kts 358°
2026-04-20 21:31 33.90295 -9.52556 35822 ft 472 kts 359°
2026-04-20 21:31 33.96849 -9.52081 35816 ft 472 kts 359°
2026-04-20 21:32 34.03411 -9.51604 35812 ft 473 kts 359°
2026-04-20 21:32 34.09976 -9.51126 35812 ft 473 kts 359°
2026-04-20 21:33 34.16561 -9.50646 35815 ft 474 kts 359°
2026-04-20 21:33 34.23155 -9.50164 35812 ft 475 kts 359°
2026-04-20 21:34 34.29761 -9.49681 35811 ft 476 kts 359°
2026-04-20 21:34 34.36376 -9.49196 35807 ft 477 kts 359°
2026-04-20 21:35 34.43005 -9.48709 35810 ft 478 kts 359°
2026-04-20 21:35 34.49602 -9.48224 35805 ft 478 kts 359°
2026-04-20 21:36 34.56247 -9.47734 35805 ft 478 kts 359°
2026-04-20 21:36 34.62886 -9.47244 35820 ft 478 kts 359°
2026-04-20 21:37 34.69539 -9.46753 35808 ft 478 kts 359°
2026-04-20 21:37 34.76183 -9.46261 35808 ft 478 kts 359°
2026-04-20 21:38 34.82820 -9.45768 35802 ft 477 kts 359°
2026-04-20 21:38 34.89442 -9.45277 35815 ft 476 kts 360°
2026-04-20 21:39 34.96059 -9.44785 35803 ft 476 kts 360°
2026-04-20 21:39 35.02668 -9.44292 35805 ft 475 kts 360°
2026-04-20 21:40 35.09265 -9.43800 35805 ft 475 kts 360°
2026-04-20 21:40 35.15857 -9.43308 35811 ft 474 kts 360°
2026-04-20 21:41 35.22449 -9.42815 35804 ft 474 kts 360°
2026-04-20 21:41 35.29035 -9.42321 35806 ft 474 kts 360°
2026-04-20 21:42 35.35618 -9.41827 35806 ft 474 kts 360°
2026-04-20 21:42 35.42209 -9.41331 35811 ft 475 kts
2026-04-20 21:43 35.48804 -9.40834 35807 ft 475 kts
2026-04-20 21:43 35.55361 -9.40340 35806 ft 476 kts
2026-04-20 21:44 35.61968 -9.39840 35806 ft 476 kts
2026-04-20 21:44 35.68585 -9.39339 35806 ft 476 kts
2026-04-20 21:45 35.75206 -9.38837 35806 ft 477 kts
2026-04-20 21:45 35.81830 -9.38334 35814 ft 477 kts
2026-04-20 21:46 35.88463 -9.37829 35826 ft 478 kts
2026-04-20 21:46 35.93975 -9.37408 35813 ft 478 kts
2026-04-20 21:47 36.00618 -9.36861 35814 ft 479 kts
2026-04-20 21:47 36.07255 -9.36192 35817 ft 479 kts
2026-04-20 21:48 36.13892 -9.35507 35827 ft 478 kts
2026-04-20 21:48 36.20528 -9.34834 35818 ft 478 kts
2026-04-20 21:49 36.27160 -9.34170 35824 ft 478 kts
2026-04-20 21:49 36.33791 -9.33509 35810 ft 478 kts
2026-04-20 21:50 36.40411 -9.32847 35835 ft 477 kts
2026-04-20 21:50 36.47033 -9.32183 35821 ft 477 kts
2026-04-20 21:51 36.53651 -9.31518 35814 ft 477 kts
2026-04-20 21:51 36.60264 -9.30853 35830 ft 477 kts
2026-04-20 21:52 36.66876 -9.30187 35834 ft 477 kts
2026-04-20 21:52 36.73495 -9.29519 35827 ft 477 kts
2026-04-20 21:53 36.80111 -9.28849 35835 ft 477 kts
2026-04-20 21:53 36.86735 -9.28178 35834 ft 477 kts
2026-04-20 21:54 36.93358 -9.27506 35837 ft 478 kts
2026-04-20 21:54 36.99990 -9.26832 35839 ft 478 kts
2026-04-20 21:55 37.06624 -9.26156 35837 ft 478 kts
2026-04-20 21:55 37.13264 -9.25479 35856 ft 479 kts
2026-04-20 21:56 37.19906 -9.24800 35840 ft 479 kts
2026-04-20 21:56 37.26549 -9.24120 35837 ft 479 kts
2026-04-20 21:57 37.33190 -9.23439 35842 ft 479 kts
2026-04-20 21:57 37.39831 -9.22756 35844 ft 479 kts
2026-04-20 21:58 37.46470 -9.22073 35842 ft 478 kts
2026-04-20 21:58 37.53102 -9.21389 35841 ft 478 kts
2026-04-20 21:59 37.59731 -9.20704 35858 ft 478 kts
2026-04-20 21:59 37.66358 -9.20019 35845 ft 478 kts
2026-04-20 22:00 37.72986 -9.19332 35839 ft 478 kts
2026-04-20 22:00 37.79608 -9.18644 35844 ft 477 kts
2026-04-20 22:01 37.86232 -9.17955 35849 ft 477 kts
2026-04-20 22:01 37.92858 -9.17264 35841 ft 478 kts
2026-04-20 22:02 37.99481 -9.16573 35842 ft 478 kts
2026-04-20 22:02 38.06111 -9.15879 35840 ft 478 kts
2026-04-20 22:03 38.12740 -9.15184 35842 ft 478 kts
2026-04-20 22:03 38.19332 -9.14492 35842 ft 478 kts
2026-04-20 22:04 38.25964 -9.13795 35845 ft 478 kts
2026-04-20 22:04 38.32603 -9.13095 35848 ft 479 kts
2026-04-20 22:05 38.39239 -9.12395 35836 ft 479 kts
2026-04-20 22:05 38.45882 -9.11692 35839 ft 479 kts
2026-04-20 22:06 38.52520 -9.10989 35836 ft 479 kts
2026-04-20 22:06 38.59157 -9.10284 35835 ft 479 kts
2026-04-20 22:07 38.65792 -9.09578 35840 ft 479 kts
2026-04-20 22:07 38.72429 -9.08871 35793 ft 478 kts
2026-04-20 22:08 38.79054 -9.08164 35833 ft 477 kts
2026-04-20 22:08 38.85668 -9.07456 35829 ft 476 kts
2026-04-20 22:09 38.92266 -9.06749 35839 ft 476 kts
2026-04-20 22:09 38.98864 -9.06041 35830 ft 475 kts
2026-04-20 22:10 39.05405 -9.05337 35832 ft 475 kts
2026-04-20 22:10 39.11981 -9.04629 35839 ft 474 kts
2026-04-20 22:11 39.18552 -9.03919 35840 ft 474 kts
2026-04-20 22:11 39.25125 -9.03128 35836 ft 474 kts
2026-04-20 22:12 39.31676 -9.02031 35853 ft 475 kts
2026-04-20 22:12 39.38236 -9.00881 35835 ft 476 kts
2026-04-20 22:13 39.44806 -8.99767 35851 ft 476 kts
2026-04-20 22:13 39.51390 -8.98673 35831 ft 477 kts
2026-04-20 22:14 39.57984 -8.97584 35828 ft 478 kts
2026-04-20 22:14 39.64592 -8.96490 35813 ft 479 kts
2026-04-20 22:15 39.71211 -8.95390 35818 ft 480 kts
2026-04-20 22:15 39.77840 -8.94286 35805 ft 480 kts
2026-04-20 22:16 39.84472 -8.93179 35804 ft 481 kts
2026-04-20 22:16 39.91104 -8.92069 35807 ft 480 kts
2026-04-20 22:17 39.97737 -8.90958 35805 ft 480 kts
2026-04-20 22:17 40.04363 -8.89846 35817 ft 480 kts
2026-04-20 22:18 40.10934 -8.88740 35832 ft 479 kts
2026-04-20 22:18 40.17540 -8.87627 35839 ft 479 kts
2026-04-20 22:19 40.24153 -8.86510 35835 ft 478 kts
2026-04-20 22:19 40.30752 -8.85394 35832 ft 478 kts
2026-04-20 22:20 40.37350 -8.84275 35834 ft 478 kts
2026-04-20 22:20 40.43945 -8.83155 35836 ft 478 kts
2026-04-20 22:21 40.50539 -8.82033 35835 ft 478 kts
2026-04-20 22:21 40.57137 -8.80908 35838 ft 478 kts
2026-04-20 22:22 40.63732 -8.79781 35838 ft 478 kts
2026-04-20 22:22 40.70324 -8.78652 35842 ft 478 kts
2026-04-20 22:23 40.76921 -8.77520 35847 ft 478 kts
2026-04-20 22:23 40.83518 -8.76386 35860 ft 478 kts
2026-04-20 22:24 40.90112 -8.75250 35855 ft 478 kts
2026-04-20 22:24 40.96706 -8.74112 35860 ft 478 kts
2026-04-20 22:25 41.03301 -8.72971 35861 ft 478 kts
2026-04-20 22:25 41.09850 -8.71836 35857 ft 478 kts
2026-04-20 22:26 41.16437 -8.70692 35853 ft 477 kts
2026-04-20 22:26 41.23010 -8.69548 35858 ft 476 kts
2026-04-20 22:27 41.32861 -8.67900 35856 ft 475 kts
2026-04-20 22:27 41.39425 -8.66907 35858 ft 474 kts
2026-04-20 22:28 41.45974 -8.65909 35865 ft 474 kts
2026-04-20 22:28 41.52518 -8.64896 35859 ft 473 kts
2026-04-20 22:29 41.59057 -8.63877 35870 ft 473 kts
2026-04-20 22:29 41.65583 -8.62858 35880 ft 472 kts
2026-04-20 22:30 41.72109 -8.61838 35889 ft 472 kts
2026-04-20 22:30 41.77531 -8.60988 35882 ft 472 kts
2026-04-20 22:31 41.85149 -8.59626 35877 ft 474 kts 11°
2026-04-20 22:31 41.91379 -8.56662 35893 ft 476 kts 21°
2026-04-20 22:32 41.97510 -8.53268 35888 ft 477 kts 21°
2026-04-20 22:32 42.02617 -8.50458 35879 ft 478 kts 21°
2026-04-20 22:33 42.08783 -8.47115 35904 ft 478 kts 20°
2026-04-20 22:33 42.14953 -8.43792 35909 ft 478 kts 20°
2026-04-20 22:34 42.21127 -8.40466 35897 ft 478 kts 20°
2026-04-20 22:34 42.27296 -8.37134 35907 ft 477 kts 20°
2026-04-20 22:35 42.33416 -8.33819 35909 ft 477 kts 20°
2026-04-20 22:35 42.39569 -8.30478 35909 ft 476 kts 20°
2026-04-20 22:36 42.45704 -8.27140 35917 ft 474 kts 20°
2026-04-20 22:36 42.51821 -8.23806 35912 ft 474 kts 20°
2026-04-20 22:37 42.57929 -8.20469 35918 ft 473 kts 20°
2026-04-20 22:37 42.64028 -8.17130 35923 ft 472 kts 20°
2026-04-20 22:38 42.70119 -8.13788 35925 ft 472 kts 20°
2026-04-20 22:38 42.76208 -8.10441 35933 ft 472 kts 20°
2026-04-20 22:39 42.82306 -8.07082 35931 ft 473 kts 20°
2026-04-20 22:39 42.88412 -8.03711 35937 ft 474 kts 20°
2026-04-20 22:40 42.94526 -8.00327 35929 ft 475 kts 20°
2026-04-20 22:40 43.00647 -7.96933 35936 ft 475 kts 20°
2026-04-20 22:41 43.06778 -7.93526 35936 ft 476 kts 20°
2026-04-20 22:41 43.12912 -7.90110 35934 ft 476 kts 20°
2026-04-20 22:42 43.19004 -7.86709 35952 ft 476 kts 20°
2026-04-20 22:42 43.25129 -7.83283 35942 ft 475 kts 20°
2026-04-20 22:43 43.31253 -7.79850 35939 ft 475 kts 20°
2026-04-20 22:43 43.37360 -7.76419 35949 ft 474 kts 20°
2026-04-20 22:44 43.43456 -7.72987 35943 ft 473 kts 20°
2026-04-20 22:44 43.49542 -7.69553 35936 ft 472 kts 20°
2026-04-20 22:45 43.55619 -7.66117 35932 ft 472 kts 20°
2026-04-20 22:45 43.61684 -7.62680 35934 ft 471 kts 20°
2026-04-20 22:46 43.67742 -7.59239 35933 ft 470 kts 20°
2026-04-20 22:46 43.73776 -7.55804 35940 ft 469 kts 20°
2026-04-20 22:47 43.79797 -7.52370 35941 ft 467 kts 20°
2026-04-20 22:47 43.85801 -7.48937 35940 ft 466 kts 20°
2026-04-20 22:48 43.91789 -7.45507 35944 ft 465 kts 20°
2026-04-20 22:48 43.97767 -7.42074 35951 ft 465 kts 20°
2026-04-20 22:49 44.03738 -7.38638 35956 ft 464 kts 20°
2026-04-20 22:49 44.09670 -7.35218 35954 ft 464 kts 20°
2026-04-20 22:50 44.15635 -7.31770 35953 ft 464 kts 20°
2026-04-20 22:50 44.21609 -7.28309 35967 ft 465 kts 20°
2026-04-20 22:51 44.27583 -7.24842 35959 ft 465 kts 20°
2026-04-20 22:51 44.33561 -7.21364 35950 ft 465 kts 19°
2026-04-20 22:52 44.39535 -7.17880 35972 ft 465 kts 19°
2026-04-20 22:52 44.45511 -7.14388 35962 ft 466 kts 19°
2026-04-20 22:53 44.51489 -7.10887 35965 ft 466 kts 19°
2026-04-20 22:53 44.57465 -7.07378 35966 ft 466 kts 19°
2026-04-20 22:54 44.63435 -7.03866 35966 ft 465 kts 19°
2026-04-20 22:54 44.69405 -7.00345 35968 ft 465 kts 19°
2026-04-20 22:55 44.75370 -6.96819 35967 ft 465 kts 19°
2026-04-20 22:55 44.81331 -6.93289 35979 ft 465 kts 19°
2026-04-20 22:56 44.87119 -6.89314 35975 ft 467 kts 27°
2026-04-20 22:56 44.92753 -6.84611 35978 ft 467 kts 28°
2026-04-20 22:57 44.98289 -6.79918 35971 ft 467 kts 27°
2026-04-20 22:57 45.03865 -6.75257 35971 ft 465 kts 27°
2026-04-20 22:58 45.09451 -6.70630 35978 ft 464 kts 27°
2026-04-20 22:58 45.15021 -6.66017 35977 ft 464 kts 27°
2026-04-20 22:59 45.20584 -6.61400 35998 ft 463 kts 27°
2026-04-20 22:59 45.26136 -6.56780 35982 ft 462 kts 27°
2026-04-20 23:00 45.31674 -6.52159 35985 ft 461 kts 27°
2026-04-20 23:00 45.37207 -6.47531 35992 ft 461 kts 27°
2026-04-20 23:01 45.42736 -6.42897 35996 ft 461 kts 27°
2026-04-20 23:01 45.48265 -6.38252 36005 ft 461 kts 27°
2026-04-20 23:02 45.53753 -6.33631 36004 ft 462 kts 27°
2026-04-20 23:02 45.59328 -6.28925 36007 ft 462 kts 27°
2026-04-20 23:03 45.64860 -6.24245 36014 ft 462 kts 27°
2026-04-20 23:03 45.70396 -6.19550 36010 ft 463 kts 27°
2026-04-20 23:04 45.75928 -6.14847 36010 ft 462 kts 27°
2026-04-20 23:04 45.81456 -6.10138 36029 ft 462 kts 28°
2026-04-20 23:05 45.86940 -6.05455 36018 ft 462 kts 28°
2026-04-20 23:05 45.92461 -6.00729 36020 ft 462 kts 28°
2026-04-20 23:06 45.97974 -5.96000 36025 ft 462 kts 28°
2026-04-20 23:06 46.03486 -5.91259 36038 ft 462 kts 28°
2026-04-20 23:07 46.09000 -5.86506 36027 ft 462 kts 28°
2026-04-20 23:07 46.14509 -5.81747 36030 ft 462 kts 28°
2026-04-20 23:08 46.20015 -5.76978 36030 ft 461 kts 28°
2026-04-20 23:08 46.25516 -5.72203 36042 ft 461 kts 28°
2026-04-20 23:09 46.31017 -5.67416 36035 ft 461 kts 28°
2026-04-20 23:09 46.36506 -5.62628 36038 ft 461 kts 28°
2026-04-20 23:10 46.41995 -5.57828 36047 ft 460 kts 28°
2026-04-20 23:10 46.47474 -5.53027 36054 ft 460 kts 28°
2026-04-20 23:11 46.52947 -5.48219 36050 ft 459 kts 28°
2026-04-20 23:11 46.58406 -5.43412 36051 ft 458 kts 28°
2026-04-20 23:12 46.63853 -5.38604 36056 ft 457 kts 28°
2026-04-20 23:12 46.69286 -5.33797 36062 ft 457 kts 28°
2026-04-20 23:13 46.74718 -5.28980 36062 ft 456 kts 28°
2026-04-20 23:13 46.80136 -5.24163 36065 ft 456 kts 28°
2026-04-20 23:14 46.85546 -5.19342 36072 ft 456 kts 28°
2026-04-20 23:14 46.90955 -5.14510 36065 ft 455 kts 28°
2026-04-20 23:15 46.96360 -5.09670 36069 ft 455 kts 28°
2026-04-20 23:15 47.01759 -5.04825 36073 ft 455 kts 28°
2026-04-20 23:16 47.07119 -5.00003 36087 ft 455 kts 28°
2026-04-20 23:16 47.12513 -4.95137 36081 ft 455 kts 28°
2026-04-20 23:17 47.17913 -4.90255 36087 ft 456 kts 27°
2026-04-20 23:17 47.23310 -4.85364 36087 ft 456 kts 27°
2026-04-20 23:18 47.28713 -4.80456 36102 ft 456 kts 27°
2026-04-20 23:18 47.34112 -4.75540 36094 ft 456 kts 27°
2026-04-20 23:19 47.39513 -4.70609 36097 ft 456 kts 27°
2026-04-20 23:19 47.44910 -4.65670 36097 ft 456 kts 27°
2026-04-20 23:20 47.50311 -4.60715 36112 ft 456 kts 27°
2026-04-20 23:20 47.55704 -4.55755 36110 ft 457 kts 27°
2026-04-20 23:21 47.61099 -4.50781 36103 ft 457 kts 27°
2026-04-20 23:21 47.66488 -4.45801 36100 ft 457 kts 27°
2026-04-20 23:22 47.70969 -4.41650 36112 ft 457 kts 27°
2026-04-20 23:22 47.76356 -4.36649 36117 ft 457 kts 27°
2026-04-20 23:23 47.81784 -4.31757 36115 ft 454 kts 21°
2026-04-20 23:23 47.87664 -4.28731 36132 ft 445 kts 10°
2026-04-20 23:24 47.93640 -4.26284 36151 ft 445 kts 10°
2026-04-20 23:24 47.99618 -4.23798 36142 ft 446 kts 10°
2026-04-20 23:25 48.05593 -4.21255 36130 ft 447 kts 11°
2026-04-20 23:25 48.11564 -4.18685 36126 ft 446 kts 11°
2026-04-20 23:26 48.17528 -4.16109 36140 ft 446 kts 11°
2026-04-20 23:26 48.23486 -4.13531 36124 ft 445 kts 11°
2026-04-20 23:27 48.29431 -4.10953 36126 ft 444 kts 11°
2026-04-20 23:27 48.35360 -4.08377 36129 ft 443 kts 11°
2026-04-20 23:28 48.41280 -4.05798 36139 ft 443 kts 11°
2026-04-20 23:28 48.47188 -4.03218 36136 ft 442 kts 11°
2026-04-20 23:29 48.53051 -4.00652 36129 ft 441 kts 11°
2026-04-20 23:29 48.58935 -3.98070 36172 ft 440 kts 11°
2026-04-20 23:30 48.64816 -3.95483 36163 ft 440 kts 11°
2026-04-20 23:30 48.70689 -3.92894 36164 ft 439 kts 11°
2026-04-20 23:31 48.76559 -3.90300 36175 ft 440 kts 12°
2026-04-20 23:31 48.82435 -3.87696 36169 ft 440 kts 12°
2026-04-20 23:32 48.88314 -3.85084 36184 ft 440 kts 12°
2026-04-20 23:32 48.94200 -3.82464 36186 ft 441 kts 12°
2026-04-20 23:33 49.00151 -3.80571 36179 ft 433 kts 358°
2026-04-20 23:33 49.06165 -3.80253 36196 ft 433 kts 357°
2026-04-20 23:34 49.12188 -3.79985 36189 ft 434 kts 357°
2026-04-20 23:34 49.18223 -3.79656 36188 ft 434 kts 358°
2026-04-20 23:35 49.27296 -3.79106 36208 ft 435 kts 358°
2026-04-20 23:36 49.33352 -3.78733 36206 ft 436 kts 358°
2026-04-20 23:36 49.39412 -3.78360 36206 ft 436 kts 358°
2026-04-20 23:37 49.45470 -3.77987 36206 ft 436 kts 358°
2026-04-20 23:37 49.51525 -3.77614 36216 ft 435 kts 357°
2026-04-20 23:38 49.57576 -3.77240 36211 ft 435 kts 357°
2026-04-20 23:38 49.63573 -3.76868 36220 ft 434 kts 357°
2026-04-20 23:39 49.69605 -3.76493 36250 ft 433 kts 357°
2026-04-20 23:39 49.75631 -3.75879 36236 ft 434 kts 359°
2026-04-20 23:40 49.81647 -3.75108 36221 ft 433 kts 359°
2026-04-20 23:40 49.87647 -3.74358 36235 ft 432 kts 359°
2026-04-20 23:41 49.93640 -3.73635 36251 ft 432 kts 359°
2026-04-20 23:41 49.99627 -3.72921 36241 ft 431 kts 359°
2026-04-20 23:42 50.05605 -3.72208 36242 ft 431 kts 359°
2026-04-20 23:42 50.11579 -3.71492 36247 ft 430 kts 359°
2026-04-20 23:43 50.17553 -3.70774 36249 ft 431 kts 359°
2026-04-20 23:43 50.23535 -3.70053 36249 ft 431 kts 359°
2026-04-20 23:44 50.29513 -3.69330 36255 ft 431 kts 359°
2026-04-20 23:44 50.35495 -3.68606 36273 ft 432 kts 359°
2026-04-20 23:45 50.41497 -3.67876 36265 ft 433 kts 360°
2026-04-20 23:45 50.47500 -3.66953 36262 ft 434 kts
2026-04-20 23:46 50.53510 -3.65912 36280 ft 434 kts
2026-04-20 23:46 50.59519 -3.64878 36287 ft 434 kts
2026-04-20 23:47 50.65531 -3.63860 36278 ft 435 kts
2026-04-20 23:47 50.71551 -3.62849 36270 ft 435 kts
2026-04-20 23:48 50.77565 -3.61838 36286 ft 435 kts
2026-04-20 23:48 50.83581 -3.60823 36294 ft 435 kts
2026-04-20 23:49 50.89597 -3.59807 36285 ft 435 kts
2026-04-20 23:49 50.95617 -3.58787 36280 ft 435 kts
2026-04-20 23:50 51.01637 -3.57763 36293 ft 435 kts
2026-04-20 23:50 51.07614 -3.56744 36288 ft 435 kts
2026-04-20 23:51 51.13630 -3.55716 36297 ft 435 kts
2026-04-20 23:51 51.19639 -3.54686 36294 ft 435 kts
2026-04-20 23:52 51.25658 -3.53652 36291 ft 435 kts
2026-04-20 23:52 51.31672 -3.52616 36305 ft 435 kts
2026-04-20 23:53 51.37692 -3.51576 36294 ft 435 kts
2026-04-20 23:53 51.43720 -3.50532 36295 ft 435 kts
2026-04-20 23:54 51.49694 -3.49490 36142 ft 424 kts
2026-04-20 23:54 51.52605 -3.48978 35773 ft 420 kts 360°
2026-04-20 23:54 51.55516 -3.48471 35225 ft 421 kts 359°
2026-04-20 23:54 51.58422 -3.47966 34790 ft 419 kts 359°
2026-04-20 23:55 51.61304 -3.47462 34432 ft 414 kts 358°
2026-04-20 23:55 51.64153 -3.46962 34082 ft 410 kts 358°
2026-04-20 23:55 51.66972 -3.46467 33676 ft 406 kts 358°
2026-04-20 23:55 51.69765 -3.45977 33263 ft 402 kts 358°
2026-04-20 23:56 51.72536 -3.45490 32862 ft 399 kts 358°
2026-04-20 23:56 51.75282 -3.45008 32495 ft 395 kts 358°
2026-04-20 23:56 51.78001 -3.44529 32148 ft 392 kts 357°
2026-04-20 23:56 51.80713 -3.44055 31406 ft 396 kts 357°
2026-04-20 23:57 51.83517 -3.43578 30309 ft 412 kts 357°
2026-04-20 23:57 51.86378 -3.43085 29519 ft 414 kts 358°
2026-04-20 23:57 51.89229 -3.42579 28934 ft 410 kts 358°
2026-04-20 23:57 51.92061 -3.42072 28332 ft 408 kts 358°
2026-04-20 23:58 51.94874 -3.41566 27751 ft 406 kts 358°
2026-04-20 23:58 51.97637 -3.41070 27185 ft 404 kts 358°
2026-04-20 23:58 52.00426 -3.40572 26648 ft 402 kts 359°
2026-04-20 23:58 52.03194 -3.40078 26083 ft 400 kts 359°
2026-04-20 23:59 52.05950 -3.39586 25550 ft 398 kts 359°
2026-04-20 23:59 52.08693 -3.39097 25013 ft 396 kts 359°
2026-04-20 23:59 52.11422 -3.38611 24489 ft 393 kts 360°
2026-04-20 23:59 52.14140 -3.38125 23985 ft 392 kts 360°
2026-04-21 00:00 52.16843 -3.37642 23358 ft 390 kts
2026-04-21 00:00 52.19535 -3.37160 22775 ft 388 kts
2026-04-21 00:00 52.22211 -3.36680 22172 ft 387 kts
2026-04-21 00:00 52.24879 -3.36202 21614 ft 385 kts
2026-04-21 00:01 52.27539 -3.35724 21043 ft 384 kts
2026-04-21 00:01 52.30189 -3.35246 20471 ft 382 kts
2026-04-21 00:01 52.32824 -3.34771 19930 ft 380 kts
2026-04-21 00:01 52.35450 -3.34297 19461 ft 377 kts
2026-04-21 00:02 52.38022 -3.33829 19231 ft 367 kts
2026-04-21 00:02 52.40530 -3.33373 18973 ft 359 kts
2026-04-21 00:02 52.42991 -3.32926 18644 ft 354 kts
2026-04-21 00:02 52.45423 -3.32486 18231 ft 350 kts
2026-04-21 00:03 52.47829 -3.32050 17891 ft 345 kts
2026-04-21 00:03 52.50198 -3.31621 17556 ft 340 kts
2026-04-21 00:03 52.52534 -3.31197 17227 ft 336 kts
2026-04-21 00:03 52.54841 -3.30776 16910 ft 331 kts
2026-04-21 00:04 52.57112 -3.30362 16590 ft 327 kts
2026-04-21 00:04 52.59360 -3.29952 16274 ft 323 kts
2026-04-21 00:04 52.61552 -3.29552 15968 ft 319 kts
2026-04-21 00:04 52.63777 -3.29145 15657 ft 316 kts
2026-04-21 00:05 52.65921 -3.28752 15359 ft 313 kts
2026-04-21 00:05 52.68071 -3.28359 15054 ft 310 kts
2026-04-21 00:05 52.70202 -3.27968 14753 ft 307 kts
2026-04-21 00:05 52.72312 -3.27572 14463 ft 304 kts
2026-04-21 00:06 52.74383 -3.26989 14243 ft 299 kts 11°
2026-04-21 00:06 52.76404 -3.26304 13978 ft 295 kts 12°
2026-04-21 00:06 52.78415 -3.25602 13683 ft 295 kts 12°
2026-04-21 00:06 52.80423 -3.24906 13368 ft 295 kts 12°
2026-04-21 00:07 52.82427 -3.24218 13043 ft 293 kts 12°
2026-04-21 00:07 52.84416 -3.23541 12733 ft 291 kts 12°
2026-04-21 00:07 52.86390 -3.22873 12431 ft 288 kts 13°
2026-04-21 00:07 52.88348 -3.22212 12122 ft 286 kts 13°
2026-04-21 00:08 52.90296 -3.21556 11818 ft 285 kts 12°
2026-04-21 00:08 52.92231 -3.20904 11519 ft 283 kts 13°
2026-04-21 00:08 52.94159 -3.20255 11212 ft 282 kts 13°
2026-04-21 00:08 52.96077 -3.19610 10914 ft 281 kts 13°
2026-04-21 00:09 52.97984 -3.18968 10619 ft 279 kts 13°
2026-04-21 00:09 52.99862 -3.18335 10513 ft 272 kts 14°
2026-04-21 00:09 53.01703 -3.17714 10394 ft 268 kts 14°
2026-04-21 00:09 53.03525 -3.17099 10103 ft 267 kts 14°
2026-04-21 00:10 53.04729 -3.16688 9915 ft 265 kts 15°
2026-04-21 00:10 53.06786 -3.14723 9589 ft 254 kts 50°
2026-04-21 00:10 53.07470 -3.13161 9411 ft 252 kts 61°
2026-04-21 00:10 53.08243 -3.10568 9149 ft 249 kts 66°
2026-04-21 00:11 53.08937 -3.07914 8886 ft 251 kts 67°
2026-04-21 00:11 53.09624 -3.05239 8616 ft 252 kts 67°
2026-04-21 00:11 53.10535 -3.01707 8258 ft 250 kts 66°
2026-04-21 00:11 53.11000 -2.99914 8076 ft 249 kts 66°
2026-04-21 00:12 53.11687 -2.97284 7808 ft 247 kts 66°
2026-04-21 00:12 53.12373 -2.94665 7558 ft 246 kts 66°
2026-04-21 00:12 53.13054 -2.92072 7310 ft 244 kts 66°
2026-04-21 00:12 53.13733 -2.89492 7053 ft 242 kts 66°
2026-04-21 00:13 53.14408 -2.86928 6801 ft 241 kts 66°
2026-04-21 00:13 53.15079 -2.84379 6535 ft 240 kts 66°
2026-04-21 00:13 53.15747 -2.81843 6278 ft 240 kts 66°
2026-04-21 00:13 53.16421 -2.79279 6026 ft 243 kts 66°
2026-04-21 00:14 53.17097 -2.76707 5817 ft 240 kts 66°
2026-04-21 00:14 53.17754 -2.74207 5710 ft 232 kts 66°
2026-04-21 00:14 53.18390 -2.71782 5603 ft 225 kts 66°
2026-04-21 00:14 53.19004 -2.69440 5510 ft 221 kts 66°
2026-04-21 00:15 53.19608 -2.67134 5418 ft 213 kts 66°
2026-04-21 00:15 53.20194 -2.64892 5212 ft 212 kts 66°
2026-04-21 00:15 53.20783 -2.62643 4994 ft 210 kts 66°
2026-04-21 00:15 53.21366 -2.60413 4716 ft 209 kts 66°
2026-04-21 00:16 53.21944 -2.58196 4429 ft 208 kts 66°
2026-04-21 00:16 53.22519 -2.55987 4159 ft 207 kts 67°
2026-04-21 00:16 53.23091 -2.53793 3909 ft 204 kts 67°
2026-04-21 00:16 53.23723 -2.51712 3649 ft 198 kts 57°
2026-04-21 00:17 53.24543 -2.49914 3391 ft 191 kts 52°
2026-04-21 00:17 53.25368 -2.48229 3134 ft 184 kts 53°
2026-04-21 00:17 53.26158 -2.46597 2899 ft 177 kts 53°
2026-04-21 00:17 53.26915 -2.45027 2676 ft 169 kts 53°
2026-04-21 00:18 53.27639 -2.43523 2445 ft 163 kts 54°
2026-04-21 00:18 53.28332 -2.42086 2233 ft 155 kts 54°
2026-04-21 00:18 53.28994 -2.40713 2040 ft 150 kts 54°
2026-04-21 00:18 53.29653 -2.39344 1851 ft 153 kts 54°
2026-04-21 00:19 53.30321 -2.37960 1633 ft 152 kts 54°
2026-04-21 00:19 53.30959 -2.36638 1482 ft 142 kts 54°
2026-04-21 00:19 53.31568 -2.35377 1297 ft 131 kts 53°
2026-04-21 00:19 53.32156 -2.34158 1077 ft 135 kts 52°
2026-04-21 00:20 53.32746 -2.32942 941 ft 135 kts 52°
2026-04-21 00:20 53.33342 -2.31696 769 ft 139 kts 52°
2026-04-21 00:20 53.33955 -2.30444 529 ft 140 kts 52°
2026-04-21 00:20 53.34561 -2.29171 343 ft 139 kts 52°
2026-04-21 00:21 53.35153 -2.27963 235 ft 123 kts 52°
2026-04-21 00:21 53.35546 -2.27137 251 ft 55 kts 51°
2026-04-21 00:21 53.35709 -2.26801 266 ft 32 kts 51°
2026-04-21 00:21 53.35813 -2.26678 268 ft 16 kts 354°
2026-04-21 00:22 53.35914 -2.26741 254 ft 17 kts 296°
2026-04-21 00:22 53.35867 -2.26910 254 ft 17 kts 232°
2026-04-21 00:22 53.35806 -2.27069 254 ft 16 kts 234°
2026-04-21 00:22 53.35739 -2.27211 254 ft 15 kts 230°
2026-04-21 00:23 53.35673 -2.27345 253 ft 15 kts 230°
2026-04-21 00:23 53.35628 -2.27527 245 ft 19 kts 301°
2026-04-21 00:23 53.35738 -2.27645 248 ft 19 kts 338°
2026-04-21 00:23 53.35852 -2.27730 253 ft 18 kts
2026-04-21 00:24 53.35973 -2.27741 254 ft 17 kts 338°
2026-04-21 00:24 53.36072 -2.27857 254 ft 17 kts 324°
2026-04-21 00:24 53.36162 -2.27975 254 ft 16 kts 320°
2026-04-21 00:24 53.36240 -2.28106 254 ft 16 kts 315°
2026-04-21 00:25 53.36315 -2.28233 254 ft 15 kts 315°
2026-04-21 00:25 53.36387 -2.28355 254 ft 14 kts 308°
2026-04-21 00:25 53.36430 -2.28501 254 ft 14 kts 305°
2026-04-21 00:25 53.36500 -2.28623 254 ft 16 kts 315°
2026-04-21 00:26 53.36579 -2.28755 254 ft 16 kts 315°
2026-04-21 00:26 53.36670 -2.28716 254 ft 15 kts 44°
2026-04-21 00:26 53.36715 -2.28669 254 ft 4 kts 349°
2026-04-21 00:26 53.36741 -2.28705 254 ft 6 kts 314°
2026-04-21 00:27 53.36764 -2.28744 254 ft 2 kts 314°
2026-04-21 00:27 53.36767 -2.28749 254 ft 0 kts 315°